[[{"header":{"parameterUnit":"m.s-1","parameterCategory":1,"la1":30.2991,"la2":30.254,"lo1":-89.0895,"lo2":-89.0444,"dy":0.0017,"dx":0.0017,"nx":28,"ny":28,"refTime":"2026-01-30T03:00:00:Z","depth":0,"parameterNumber":2,"parameterNumberName":"U-component_of_WINDS"},"data":[0,0,0,0,0,0,0,0,0,0,0,0,0,0,0,0,0,0,0,0,0,0,0,0,0,0,0,0,0,0,0,0,0,0,0,0,0,0,0,0,0,0,0,0,0,0,0,0,0,0,0,0,0,0,0,0,0,0,1.9706,1.9706,0,1.9667,1.9667,1.9666,1.9612,1.9612,1.9611,1.961,1.9569,1.9569,1.9569,0,0,0,0,0,0,0,0,0,0,0,0,0,1.9736,1.9736,1.9706,1.9706,1.9705,1.9667,1.9667,1.9666,1.9613,1.9612,1.961,1.9609,1.9569,1.9569,1.9569,0,0,0,0,0,0,0,0,0,0,0,0,0,1.9713,1.9736,1.9707,1.9674,1.9671,1.9667,1.9667,1.9666,1.9613,1.9611,1.961,1.9609,1.957,1.9569,1.9569,1.9594,0,0,1.9568,1.9568,0,0,0,0,0,0,0,0,1.9714,1.9712,1.9679,1.9676,1.9673,1.9643,1.9662,1.9642,1.9613,1.9635,1.961,1.9608,1.9595,1.9593,1.9588,1.9592,1.959,1.9568,1.9568,1.9567,1.9567,0,0,0,0,0,0,0,1.9716,1.9713,1.9691,1.9679,1.9675,1.9662,1.9657,1.9658,1.9623,1.9633,1.9629,1.9625,1.9593,1.9589,1.9587,1.959,1.9568,1.9568,1.9567,1.9567,1.9615,1.9616,0,0,0,0,0,0,1.9722,1.9715,1.9692,1.969,1.969,1.9663,1.9657,1.9654,1.9623,1.9617,1.9626,1.9623,1.959,1.9587,1.9585,1.9614,1.9567,1.9567,1.9567,1.9613,1.9615,1.9617,0,0,0,0,0,0,1.9723,1.9721,1.9694,1.9701,1.9697,1.9664,1.9661,1.9654,1.965,1.9618,1.9611,1.9628,1.9589,1.9586,1.9593,1.9612,1.9567,1.9567,1.9612,1.9614,1.9616,1.9671,0,0,0,0,0,0,1.9724,1.9721,1.973,1.9702,1.9697,1.9702,1.9662,1.9654,1.9649,1.9644,1.9618,1.9612,1.9587,1.9594,1.9593,1.961,1.9566,1.961,1.9613,1.9615,1.9667,1.9674,1.9681,0,0,0,0,0,1.9725,1.9746,1.9731,1.9728,1.9707,1.9703,1.97,1.9671,1.9651,1.966,1.964,1.9613,1.961,1.9595,1.9593,1.9611,1.9608,1.9612,1.9615,1.9664,1.9673,1.9681,0,0,0,0,0,0,1.9777,1.9742,1.9724,1.9737,1.9723,1.9694,1.9704,1.9681,1.9673,1.9668,1.9633,1.9627,1.9639,1.9626,1.9609,1.9635,1.9605,1.9609,1.9643,1.9651,1.9658,1.9661,1.9566,0,0,0,0,0,1.979,1.9789,1.9759,1.9773,1.9767,1.9737,1.9734,1.9713,1.9698,1.9692,1.9672,1.9658,1.9654,1.9652,1.9646,1.9665,1.9659,1.9677,1.9684,1.969,1.9693,1.9703,1.9711,1.9628,1.9628,1.9628,0,0,1.9816,1.9797,1.9799,1.9783,1.977,1.9771,1.9732,1.9734,1.9735,1.9692,1.9697,1.9683,1.9665,1.9679,1.9684,1.9668,1.9715,1.9694,1.9699,1.9699,1.9708,1.9716,1.9723,1.963,1.9629,1.9629,0,0,1.9864,1.985,1.986,1.9849,1.983,1.9811,1.9814,1.9788,1.9777,1.9782,1.9751,1.9751,1.9745,1.9734,1.9728,1.9776,1.9751,1.9775,1.9811,1.9822,1.9828,1.9834,1.9852,1.9859,1.9778,1.9778,1.9778,0,1.9899,1.9899,1.9869,1.9874,1.9868,1.983,1.9842,1.9832,1.9813,1.981,1.9793,1.9786,1.9771,1.9782,1.9794,1.979,1.9793,1.9777,1.983,1.9835,1.984,1.9857,1.9863,1.9781,1.9781,1.978,1.978,0,1.9944,1.9944,1.9955,1.9939,1.9935,1.9943,1.9914,1.9914,1.9895,1.9877,1.9884,1.9866,1.9857,1.9858,1.9838,1.9867,1.9858,1.9836,1.9805,1.9851,1.9867,1.9873,1.9785,1.9784,1.9784,1.9783,0,0,2.0021,1.999,1.9994,1.9987,1.9965,1.9965,1.9973,1.9964,1.9965,1.9954,1.996,1.9957,1.9937,1.993,1.9909,1.9918,1.9959,1.9895,1.9894,1.9908,1.9992,2.0009,2.0016,1.9943,1.9944,1.9945,1.9993,0,2.0065,2.0076,2.005,2.0067,2.0068,2.0034,2.004,2.0028,2.0013,2.0012,1.9995,1.9993,1.9967,1.9963,1.9971,1.9953,1.9976,1.9949,1.9949,1.9949,1.9954,2.0024,2.0041,2.0088,1.9999,2.0,2.0001,0,2.0118,2.0111,2.0128,2.0107,2.0107,2.0113,2.0105,2.0104,2.0091,2.0079,2.0073,2.0049,2.0056,2.0027,2.0036,2.0019,2.0018,2.0009,2.0011,2.0009,1.9978,2.0025,2.0101,2.0109,2.001,2.0009,2.0008,0,2.0174,2.0168,2.0178,2.0173,2.0149,2.0155,2.0145,2.013,2.0128,2.0121,2.0119,2.0113,2.0109,2.0106,2.0081,2.0063,2.0094,2.0063,2.0085,2.0086,2.0093,2.0093,2.017,2.0092,2.0092,2.0092,2.0092,0,2.0226,2.0238,2.0203,2.021,2.0223,2.0194,2.0208,2.0195,2.0183,2.0186,2.0156,2.0161,2.0128,2.013,2.0111,2.0122,2.0121,2.0112,2.0107,2.0115,2.0116,2.0113,2.0109,2.0094,2.0093,2.0093,2.0093,0,2.029,2.0267,2.0276,2.0253,2.0248,2.0259,2.024,2.0245,2.0229,2.0234,2.0234,2.0208,2.0208,2.0184,2.0179,2.0166,2.0186,2.0175,2.0191,2.0187,2.0211,2.0209,2.0289,2.0299,2.0215,2.0216,2.0217,0,2.0324,2.0333,2.0312,2.0313,2.0305,2.0306,2.0304,2.0277,2.0276,2.0263,2.027,2.0268,2.0264,2.0267,2.0248,2.0244,2.0233,2.0261,2.0232,2.024,2.0234,2.0234,2.0235,2.0267,2.0268,2.0269,2.027,0,2.0388,2.0377,2.0375,2.037,2.0369,2.0364,2.0356,2.0359,2.0329,2.033,2.033,2.0328,2.0324,2.0322,2.0316,2.0306,2.0284,2.028,2.0285,2.0293,2.0302,2.0298,2.0208,2.0278,2.0277,2.0276,2.0276,2.0276,2.0438,2.0445,2.0433,2.0432,2.0424,2.0419,2.0423,2.0409,2.0408,2.0403,2.0387,2.0391,2.0379,2.0368,2.0361,2.0364,2.035,2.0357,2.0358,2.0361,2.0365,2.0302,2.0362,2.0362,2.0362,2.0362,2.0362,0,2.0501,2.0492,2.0492,2.0484,2.0484,2.0464,2.0455,2.0457,2.046,2.0452,2.045,2.0451,2.0451,2.0433,2.043,2.0436,2.0426,2.0436,2.0435,2.0434,2.0378,2.0374,2.0445,2.0445,2.0445,2.0445,2.0445,2.0445,2.0534,2.0545,2.0534,2.0541,2.0532,2.0535,2.0533,2.0528,2.0521,2.0524,2.0524,2.0513,2.0501,2.0497,2.0496,2.0491,2.0492,2.0506,2.0498,2.0446,2.0437,2.043,2.0426,2.0506,2.0507,2.0553,2.0554,2.0554]},{"header":{"parameterUnit":"m.s-1","parameterCategory":1,"la1":30.2991,"la2":30.254,"lo1":-89.0895,"lo2":-89.0444,"dy":0.0017,"dx":0.0017,"nx":28,"ny":28,"refTime":"2026-01-30T03:00:00:Z","depth":0,"parameterNumber":3,"parameterNumberName":"V-component_of_WINDS"},"data":[0,0,0,0,0,0,0,0,0,0,0,0,0,0,0,0,0,0,0,0,0,0,0,0,0,0,0,0,0,0,0,0,0,0,0,0,0,0,0,0,0,0,0,0,0,0,0,0,0,0,0,0,0,0,0,0,0,0,-5.5764,-5.5765,0,-5.5823,-5.5824,-5.5824,-5.5807,-5.5805,-5.5804,-5.5803,-5.5859,-5.5861,-5.5864,0,0,0,0,0,0,0,0,0,0,0,0,0,-5.5633,-5.5636,-5.5764,-5.5765,-5.5765,-5.5823,-5.5824,-5.5824,-5.5807,-5.5805,-5.5804,-5.5802,-5.5858,-5.5861,-5.5864,0,0,0,0,0,0,0,0,0,0,0,0,0,-5.5691,-5.5636,-5.5764,-5.5764,-5.5764,-5.5823,-5.5824,-5.5825,-5.5807,-5.5805,-5.5803,-5.5802,-5.5857,-5.586,-5.5864,-5.5925,0,0,-5.5876,-5.5878,0,0,0,0,0,0,0,0,-5.5687,-5.5695,-5.5763,-5.5764,-5.5764,-5.5806,-5.5798,-5.5858,-5.5808,-5.5791,-5.5803,-5.5801,-5.5842,-5.5847,-5.5862,-5.5928,-5.593,-5.5877,-5.5879,-5.5881,-5.5882,0,0,0,0,0,0,0,-5.5683,-5.5693,-5.5787,-5.5764,-5.5765,-5.576,-5.5766,-5.5809,-5.5826,-5.5792,-5.5791,-5.5798,-5.5842,-5.5858,-5.5863,-5.5931,-5.5877,-5.588,-5.5883,-5.5884,-5.6052,-5.6054,0,0,0,0,0,0,-5.5679,-5.569,-5.5785,-5.5789,-5.5721,-5.5764,-5.577,-5.5794,-5.5825,-5.5828,-5.58,-5.5797,-5.5853,-5.5859,-5.5865,-5.594,-5.5881,-5.5884,-5.5887,-5.605,-5.6053,-5.6055,0,0,0,0,0,0,-5.5677,-5.5688,-5.5783,-5.5739,-5.5751,-5.5768,-5.5795,-5.5796,-5.5812,-5.5831,-5.5834,-5.5814,-5.5851,-5.586,-5.5911,-5.5942,-5.5886,-5.589,-5.6048,-5.6051,-5.6054,-5.609,0,0,0,0,0,0,-5.5673,-5.5687,-5.5711,-5.574,-5.5753,-5.5829,-5.5796,-5.5799,-5.582,-5.5817,-5.5845,-5.5848,-5.5851,-5.5906,-5.5915,-5.5946,-5.5893,-5.6045,-5.6049,-5.6053,-5.6086,-5.6094,-5.61,0,0,0,0,0,-5.5668,-5.5717,-5.5712,-5.5724,-5.5783,-5.5831,-5.5838,-5.5842,-5.5822,-5.5846,-5.5859,-5.5847,-5.5937,-5.5911,-5.5922,-5.5954,-5.6043,-5.6048,-5.6053,-5.6083,-5.6092,-5.61,0,0,0,0,0,0,-5.5688,-5.572,-5.5716,-5.5775,-5.5801,-5.5828,-5.5857,-5.5852,-5.5882,-5.5878,-5.588,-5.5886,-5.594,-5.5952,-5.5923,-5.6016,-5.5987,-5.5994,-5.6006,-5.6015,-5.6023,-5.6018,-5.5896,0,0,0,0,0,-5.57,-5.5737,-5.5763,-5.5813,-5.5826,-5.584,-5.5861,-5.5862,-5.5888,-5.5898,-5.5914,-5.5938,-5.5972,-5.5994,-5.6027,-5.6088,-5.6094,-5.6116,-5.6123,-5.6129,-5.6135,-5.617,-5.6181,-5.6071,-5.6071,-5.6071,0,0,-5.5724,-5.5746,-5.5769,-5.5817,-5.5837,-5.5875,-5.5849,-5.5889,-5.5917,-5.5903,-5.5954,-5.5967,-5.5994,-5.6052,-5.6078,-5.6064,-5.6167,-5.6135,-5.614,-5.6142,-5.6176,-5.6187,-5.6196,-5.6074,-5.6073,-5.6073,0,0,-5.5787,-5.5807,-5.5852,-5.5874,-5.5906,-5.5915,-5.5926,-5.5955,-5.5964,-5.6015,-5.6006,-5.6039,-5.6097,-5.6118,-5.6136,-5.6211,-5.6202,-5.6222,-5.6259,-5.6294,-5.6302,-5.631,-5.6338,-5.6348,-5.6228,-5.6228,-5.6228,0,-5.5812,-5.587,-5.5876,-5.5918,-5.594,-5.5933,-5.5978,-5.5998,-5.6038,-5.6053,-5.6037,-5.6113,-5.613,-5.6194,-5.6212,-5.6227,-5.624,-5.6218,-5.6301,-5.6309,-5.6316,-5.6343,-5.6353,-5.623,-5.623,-5.6229,-5.6229,0,-5.59,-5.594,-5.5973,-5.6015,-5.6041,-5.6084,-5.6097,-5.6122,-5.6122,-5.6133,-5.6186,-5.6208,-5.6246,-5.6261,-5.6259,-5.6325,-5.6315,-5.63,-5.6271,-5.6329,-5.6354,-5.6364,-5.6233,-5.6232,-5.6232,-5.6231,0,0,-5.5975,-5.6022,-5.6034,-5.6054,-5.609,-5.6121,-5.6165,-5.6204,-5.6227,-5.6255,-5.6292,-5.6343,-5.6331,-5.6352,-5.6353,-5.6383,-5.6443,-5.6365,-5.6365,-5.6379,-5.6518,-5.6529,-5.6541,-5.6438,-5.644,-5.6441,-5.6516,0,-5.6041,-5.6121,-5.6129,-5.62,-5.6238,-5.6233,-5.6271,-5.6297,-5.631,-5.6343,-5.6356,-5.6393,-5.6373,-5.6386,-5.6416,-5.643,-5.6471,-5.6424,-5.6472,-5.6474,-5.6466,-5.6554,-5.6565,-5.6635,-5.6526,-5.6527,-5.6529,0,-5.6129,-5.6164,-5.6239,-5.6273,-5.6289,-5.6324,-5.6362,-5.6394,-5.6424,-5.6431,-5.6456,-5.6455,-5.65,-5.647,-5.6533,-5.6501,-5.6521,-5.6531,-5.6534,-5.6539,-5.6504,-5.6561,-5.6657,-5.6668,-5.6544,-5.6543,-5.6542,0,-5.6178,-5.6243,-5.6297,-5.6314,-5.6354,-5.6379,-5.6397,-5.6425,-5.6449,-5.6482,-5.6498,-5.6535,-5.6555,-5.6584,-5.6592,-5.6569,-5.6655,-5.6625,-5.6662,-5.6662,-5.668,-5.6679,-5.6781,-5.6693,-5.6692,-5.6692,-5.6692,0,-5.6252,-5.6298,-5.632,-5.6353,-5.6406,-5.6415,-5.6466,-5.6482,-5.6508,-5.6545,-5.6541,-5.6575,-5.6584,-5.662,-5.6626,-5.6678,-5.6687,-5.6694,-5.6695,-5.6694,-5.6694,-5.6707,-5.6703,-5.6695,-5.6694,-5.6694,-5.6693,0,-5.6314,-5.6331,-5.639,-5.6424,-5.6434,-5.6472,-5.6501,-5.6533,-5.6546,-5.6592,-5.6603,-5.6623,-5.6665,-5.6677,-5.6726,-5.6731,-5.6792,-5.6788,-5.6783,-5.6783,-5.6819,-5.6816,-5.6934,-5.695,-5.6851,-5.6852,-5.6853,0,-5.636,-5.6397,-5.6436,-5.6462,-5.6481,-5.6521,-5.6547,-5.6558,-5.6584,-5.6623,-5.6651,-5.6693,-5.6727,-5.6795,-5.6813,-5.6851,-5.6849,-5.6888,-5.6854,-5.6853,-5.685,-5.6848,-5.6852,-5.6893,-5.6895,-5.6895,-5.6896,0,-5.6441,-5.6448,-5.6486,-5.6528,-5.656,-5.6592,-5.6624,-5.6644,-5.666,-5.669,-5.6734,-5.6761,-5.6814,-5.6855,-5.6895,-5.6912,-5.6907,-5.6907,-5.6918,-5.6917,-5.6913,-5.6917,-5.68,-5.6904,-5.6903,-5.6902,-5.6902,-5.6902,-5.6497,-5.653,-5.6564,-5.6607,-5.6633,-5.6664,-5.6697,-5.6715,-5.6753,-5.6798,-5.6802,-5.685,-5.6881,-5.6934,-5.6954,-5.6992,-5.698,-5.6995,-5.6999,-5.7003,-5.7006,-5.6907,-5.6999,-5.6998,-5.6998,-5.6998,-5.6998,0,-5.6578,-5.6601,-5.6641,-5.6687,-5.6721,-5.6716,-5.6751,-5.678,-5.6823,-5.6854,-5.6889,-5.6941,-5.6982,-5.7005,-5.7047,-5.7072,-5.7071,-5.7083,-5.7081,-5.7085,-5.7014,-5.7001,-5.7083,-5.7083,-5.7083,-5.7083,-5.7083,-5.7083,-5.6624,-5.6681,-5.6693,-5.6762,-5.6784,-5.6834,-5.6855,-5.6883,-5.6908,-5.6967,-5.7002,-5.7018,-5.7045,-5.7089,-5.7127,-5.7133,-5.7149,-5.7162,-5.7166,-5.7099,-5.709,-5.7082,-5.707,-5.7165,-5.7165,-5.7235,-5.7235,-5.7236]}]]